Regional Weather Roundup
Issued by NWS Charleston, SC

Current Version | Previous Version | Graphics & Text | Print | Product List | Glossary On
Versions: 1 2 3 4 5 6 7 8 9 10 11 12 13 14 15 16 17 18 19 20 21 22 23 24 25 26 27 28 29 30 31 32 33 34 35 36 37 38 39 40 41 42 43 44 45 46 47 48 49 50
380
ASUS42 KCHS 191012
RWRCHS

REGIONAL WEATHER ROUNDUP
NATIONAL WEATHER SERVICE CHARLESTON SC
600 AM EDT SAT AUG 19 2017

NOTE: "FAIR" INDICATES FEW OR NO CLOUDS BELOW 12,000 FEET WITH NO
SIGNIFICANT WEATHER AND/OR OBSTRUCTIONS TO VISIBILITY.

NOT ALL STATIONS ARE QUALITY CONTROLLED. USE DATA WITH CAUTION...
ESPECIALLY DEWPOINT OBSERVATIONS.

SCZ027-030-031-034>040-042>050-191100-
...SOUTHEAST SOUTH CAROLINA...

CITY           SKY/WX    TMP DP  RH WIND       PRES   REMARKS
N CHARLESTON   CLEAR     79  74  84 SW3       29.93S
WATERFRONT PRK   N/A    N/A N/A N/A VRB2      29.77S
JOHNS ISLAND   FAIR      81  75  83 CALM      29.93S
PINOPOLIS        N/A     81  75  83 SW8       29.86S
MONCKS CORNER  FAIR      77  73  88 SW3       29.93S
SUMMERVILLE    FAIR      77  73  88 CALM      29.94S
BEAUFORT MCAS  CLEAR     79  77  94 SW3       29.94R
BEAUFORT ARPT  FAIR      79  73  83 W3        29.93S
HILTON HEAD IS NOT AVBL
WALTERBORO     SUNNY     77  73  88 CALM      29.94S
ALLENDALE      NOT AVBL

...SOUTHERN MIDLANDS AND PEE DEE...

CITY           SKY/WX    TMP DP  RH WIND       PRES   REMARKS
GEORGETOWN     FAIR      79  77  94 SW3       29.94R
KINGSTREE      FAIR      77  75  94 CALM      29.92S
ORANGEBURG     CLEAR     76  74  93 SW5       29.94R
BARNWELL       FAIR      77  77 100 CALM      29.94S
AIKEN          FAIR      72  72 100 W3        29.98S
MANNING        FAIR      79  77  94 MISG      29.93R
COLUMBIA       CLEAR     77  72  84 W5        29.92R
SUMTER         PTCLDY    78  75  89 S3        29.90S
FLORENCE       PTCLDY    78  78 100 S3        29.92S
MYRTLE BEACH   NOT AVBL
N MYRTLE BEACH CLEAR     82  77  84 SW9       29.92R HX  90

$$

GAZ063-065-086>088-099>101-113>116-118-119-134>141-150-191100-
...SOUTHEAST GEORGIA...

CITY           SKY/WX    TMP DP  RH WIND       PRES   REMARKS
SAVANNAH ARPT  CLEAR     76  74  93 W5        29.95S
HUNTER AAF     CLEAR     76  74  91 CALM      29.92F
FORT STEWART   CLEAR     76  73  90 SW5       29.93S
STATESBORO     CLEAR     77  74  90 W5        29.95S
SYLVANIA       SUNNY     76  76 100 CALM      29.95S
CLAXTON        FAIR      76  75  96 CALM      29.95S

...CSRA...CENTRAL AND FAR SOUTHEAST GEORGIA...

CITY           SKY/WX    TMP DP  RH WIND       PRES   REMARKS
THOMSON        PTCLDY    70  69  95 CALM      30.01R
AUGUSTA-BUSH   PTCLDY    74  72  93 SW3       29.93R
AUGUSTA-DANIEL CLEAR     78  68  71 CALM      29.95R
SWAINSBORO     FAIR      73  73 100 CALM      29.97R
VIDALIA        CLEAR     77  75  94 CALM      29.97R
EASTMAN        FAIR      74  74 100 CALM      30.00R FOG
HAZLEHURST     FAIR      77  75  94 CALM      29.96R
ALMA           PTCLDY    75  73  93 CALM      29.96R
WAYCROSS       MOCLDY    74  71  89 CALM      29.97R
JESUP          FAIR      75  72  88 CALM      29.96S
BAXLEY         FAIR      72  72 100 CALM      29.96S
BRUNSWICK      CLEAR     75  72  88 SW3       29.97R
SAINT SIMONS   CLEAR     78  76  93 SW9       29.96S

$$

SCZ027-028-034-036>038-045-046-048>050-GAZ119-141-191100-
...LAKE AND SUPPLEMENTAL COASTAL OBSERVATIONS...

STATION/POSITION TIME  TEMP    WIND        PRES    WAVE   SWELL
                       AIR SEA DIR/SP/G            HT/PER HT/PER/DIR
                 (UTC) (F)     (DEG/KT/KT) (MB)    (FT/S) (FT/S/D)
WINYAH BAY       0845   83     230/  8     1013.0
LAKE MURRAY      0920   80     250/  3/  5 1012.5
ACE BASIN NERRS  0845   80     220/  1     1014.0
FORT PULASKI     0948   79 86  240/  4/  5 1014.3R
SAPELO ISLAND    0900   78     230/  4     1014.0

$$

ANZ835-935-AMZ111-154-330-350-352-354-370-450-454-472-191100-
...C-MAN AND BUOY OBSERVATIONS...

STATION/POSITION TIME  TEMP    WIND        PRES    WAVE   SWELL
                       AIR SEA DIR/SP/G            HT/PER HT/PER/DIR
                 (UTC) (F)     (DEG/KT/KT) (MB)    (FT/S) (FT/S/D)
BUOY 41004       0950   83 85  210/ 12/ 14 1013.4F   4/ 5   2/140/ 8
BUOY 41008       0950   81 85  220/ 10/ 12 1014.0R   2/ 8   2/ 90/ 8
FOLLY BEACH CMAN 0900   84     230/ 10/ 14 1014.2S
CAPERS NEARSHORE 0908   82 85  230/ 14/ 19 1013.1F
FRIPP NEARSHORE  0908   83     240/ 12/ 14 1013.1F


STATION/POSITION TIME  TEMP    WIND        PRES    WAVE   SWELL
                       AIR SEA DIR/SP/G            HT/PER HT/PER/DIR
                 (UTC) (F)     (DEG/KT/KT) (MB)    (FT/S) (FT/S/D)
5E ST. MARYS GA  0930      84                N/A     2/ 7
FRYING PAN BUOY  0950   84 84  230/ 17/ 21 1013.4S   4/ 6
BUOY 41025       0950   84 85  240/ 19/ 23 1012.1R   6/ 6
CAPE LOOKOUT NC  0900   83     230/  9/ 13 1012.5F
BUOY 41002       0950   83 84  220/ 14/ 16 1015.7R   4/ 5   2/ 80/ 8
BUOY 41010       0950   84 85  160/ 10/ 12 1014.8F   2/ 8   2/120/ 8
ST AUGUSTINE FL  1000   75 80  260/  1/  3 1015.4R


$$




USA.gov is the U.S. government's official web portal to all federal, state and local government web resources and services.